Torna al catalogo

OPS 4682 DEB

AttivoPO
NORAD 51764·DEBRIS·🇺🇸 United States

Lanciato Apr 3, 1965 da Vandenberg Space Force Base

Loading…

Prossimi Passaggi (prossime 24 ore)

TLE

AggiornatoSource: Space-Track

Epoca: Sep 13, 2026, 19:22 UTC

1 51764U 65027GV  26256.80732281  .00000381  00000-0  13540-2 0  9992
2 51764  90.2591  10.7339 0038039  41.1880 111.4425 12.93676902604811

Traccia OPS 4682 DEB in tempo reale con AllMySat

Download on the App Store